This is the latest recevied weather packets stored in our database for station/object EFIV. If no packets are shown the sender has not sent any weather packets the latest 10 day(s).
| Time | Temp. | Humidity | Pressure | Rain* | Wind** | Luminosity | Snow |
|---|---|---|---|---|---|---|---|
| 1787778244 | 2.78° C | 87% | 1029.1 hPa | - | - | - | - |
| 1787777045 | 2.78° C | 90% | 1029 hPa | - | - | - | - |
| 1787775845 | 3.33° C | 89% | 1028.8 hPa | - | - | - | - |
| 1787774648 | 5° C | 76% | 1028.7 hPa | - | - | - | - |
| 1787773445 | 3.89° C | 83% | 1028.6 hPa | - | - | - | - |
| 1787772245 | 6.67° C | 70% | 1028.4 hPa | - | - | - | - |
| 1787771045 | 7.22° C | 65% | 1028.3 hPa | - | - | - | - |
| 1787769845 | 6.67° C | 71% | 1028.3 hPa | - | - | - | - |
| 1787768644 | 7.78° C | 61% | 1028 hPa | - | - | - | - |
| 1787767445 | 8.33° C | 58% | 1027.9 hPa | - | - | - | - |
| 1787766245 | 8.89° C | 54% | 1027.7 hPa | - | - | - | - |
| 1787765047 | 9.44° C | 51% | 1027.6 hPa | - | - | - | - |
| 1787763845 | 10° C | 50% | 1027.5 hPa | - | - | - | - |
| 1787762644 | 10.56° C | 46% | 1027.5 hPa | - | - | - | - |
| 1787761443 | 10.56° C | 45% | 1027.5 hPa | - | - | - | - |
| 1787760245 | 11.11° C | 42% | 1027.5 hPa | - | - | - | - |
| 1787759044 | 11.67° C | 41% | 1027.4 hPa | - | - | - | - |
| 1787757846 | 11.11° C | 43% | 1027.4 hPa | - | - | - | - |
| 1787756643 | 11.11° C | 44% | 1027.4 hPa | - | - | - | - |
| 1787755444 | 11.11° C | 43% | 1027.5 hPa | - | - | - | - |
| 1787754246 | 11.11° C | 45% | 1027.6 hPa | - | - | - | - |
| 1787753045 | 10.56° C | 44% | 1027.4 hPa | - | - | - | - |
| 1787750643 | 10.56° C | 44% | 1027.5 hPa | - | - | - | - |
| 1787749235 | 10.56° C | 43% | 1027.6 hPa | - | - | - | - |
| 1787748243 | 10.56° C | 43% | 1027.5 hPa | - | - | - | - |
* Rain since midnight (hover to see other rain measurements)
** Current wind speed in m/s (hover to see current wind gust speed)